Total_Precipitation_Accumulation
0.33 0.34 0.33 0.33 0.27 0.25 0.26 0.30 0.58 0.91 1.24 1.65 1.82 1.74 1.67 1.57 1.33 1.09 0.96 0.91 0.90 0.91 0.88 0.81 0.75 0.71 0.66 0.61 0.57 0.58 0.60 0.61 0.55 0.47 0.44 0.44 0.45 0.47 0.46 0.42 0.40 0.38 0.34 0.31
0.30 0.25 0.29 0.35 0.36 0.37 0.42 0.46 0.63 0.99 1.48 1.88 1.97 1.80 1.71 1.64 1.49 1.31 1.21 1.14 1.11 1.05 1.01 0.98 0.91 0.81 0.74 0.71 0.68 0.69 0.71 0.73 0.70 0.65 0.61 0.58 0.52 0.47 0.42 0.38 0.31 0.25 0.20 0.18
0.47 0.30 0.42 0.72 0.57 0.49 0.54 0.61 0.79 1.23 1.54 1.62 1.70 1.74 1.78 1.82 1.73 1.56 1.45 1.38 1.32 1.27 1.20 1.15 1.08 1.01 0.95 0.87 0.81 0.79 0.82 0.83 0.78 0.71 0.64 0.54 0.43 0.36 0.33 0.29 0.27 0.25 0.19 0.16
0.51 0.56 1.01 0.97 0.55 0.52 0.63 0.72 0.81 0.99 1.15 1.26 1.27 1.34 1.43 1.54 1.58 1.54 1.42 1.37 1.33 1.29 1.28 1.27 1.18 1.10 1.04 0.96 0.89 0.85 0.86 0.81 0.73 0.61 0.53 0.44 0.37 0.33 0.31 0.28 0.29 0.28 0.24 0.21
0.55 0.79 1.02 0.93 0.53 0.50 0.83 1.23 1.01 0.95 0.88 0.82 0.80 0.90 1.18 1.35 1.38 1.43 1.46 1.44 1.38 1.30 1.22 1.20 1.15 1.10 1.05 1.00 0.92 0.85 0.80 0.69 0.56 0.45 0.40 0.36 0.33 0.32 0.31 0.29 0.27 0.25 0.23 0.22
0.60 0.92 1.21 1.14 0.50 0.35 0.69 1.50 1.21 1.01 0.88 0.81 0.89 1.04 1.09 1.08 1.08 1.15 1.21 1.21 1.14 1.05 0.97 0.96 0.98 0.97 0.93 0.89 0.81 0.72 0.59 0.47 0.40 0.38 0.36 0.34 0.32 0.29 0.28 0.28 0.27 0.22 0.19 0.19
0.70 1.02 1.24 0.62 0.25 0.41 1.07 1.40 1.16 0.98 0.85 0.82 1.00 0.99 0.78 0.74 0.80 0.84 0.89 0.87 0.82 0.81 0.87 0.90 0.85 0.76 0.73 0.69 0.62 0.50 0.42 0.37 0.34 0.31 0.27 0.28 0.30 0.30 0.29 0.28 0.29 0.27 0.26 0.22
0.81 1.11 1.22 0.48 0.30 0.58 0.76 0.67 0.74 0.77 0.73 0.68 0.64 0.53 0.50 0.51 0.54 0.57 0.60 0.62 0.62 0.66 0.73 0.73 0.63 0.57 0.58 0.54 0.43 0.33 0.35 0.36 0.33 0.28 0.20 0.23 0.33 0.34 0.31 0.35 0.38 0.36 0.33 0.30
0.78 0.97 0.80 0.42 0.33 0.37 0.42 0.54 0.54 0.52 0.48 0.37 0.34 0.32 0.35 0.37 0.38 0.41 0.42 0.47 0.52 0.53 0.57 0.59 0.55 0.55 0.56 0.52 0.40 0.37 0.43 0.45 0.36 0.26 0.25 0.28 0.32 0.33 0.32 0.33 0.32 0.29 0.28 0.29
0.50 0.62 0.49 0.38 0.33 0.29 0.30 0.36 0.33 0.33 0.33 0.24 0.24 0.29 0.32 0.35 0.33 0.33 0.37 0.39 0.43 0.44 0.44 0.46 0.45 0.48 0.51 0.45 0.41 0.48 0.56 0.47 0.34 0.30 0.29 0.29 0.28 0.24 0.23 0.25 0.24 0.22 0.21 0.20
0.49 0.55 0.49 0.48 0.31 0.24 0.22 0.21 0.20 0.24 0.25 0.20 0.19 0.26 0.29 0.32 0.33 0.34 0.35 0.37 0.39 0.41 0.40 0.34 0.33 0.37 0.36 0.39 0.46 0.61 0.58 0.45 0.36 0.30 0.27 0.26 0.22 0.15 0.11 0.11 0.08 0.13 0.15 0.14
0.44 0.39 0.45 0.51 0.35 0.22 0.23 0.22 0.20 0.19 0.20 0.23 0.23 0.25 0.25 0.27 0.30 0.31 0.31 0.31 0.36 0.37 0.34 0.32 0.32 0.32 0.32 0.37 0.41 0.52 0.52 0.40 0.31 0.26 0.22 0.18 0.17 0.16 0.09 0.04 0.03 0.03 0.05 0.05
0.22 0.21 0.25 0.24 0.19 0.17 0.19 0.21 0.21 0.21 0.20 0.23 0.25 0.24 0.23 0.23 0.24 0.27 0.30 0.31 0.35 0.35 0.32 0.28 0.28 0.29 0.27 0.28 0.32 0.38 0.39 0.29 0.22 0.20 0.20 0.18 0.16 0.22 0.23 0.11 0.04 0.02 0.03 0.04
0.09 0.12 0.18 0.21 0.22 0.18 0.19 0.21 0.20 0.19 0.21 0.25 0.25 0.22 0.18 0.17 0.19 0.23 0.25 0.23 0.20 0.21 0.24 0.25 0.22 0.19 0.16 0.17 0.24 0.24 0.19 0.11 0.11 0.15 0.14 0.13 0.12 0.14 0.16 0.21 0.20 0.14 0.06 0.03
0.10 0.13 0.19 0.23 0.24 0.20 0.20 0.22 0.21 0.21 0.20 0.22 0.20 0.16 0.13 0.13 0.15 0.16 0.15 0.13 0.15 0.19 0.19 0.17 0.17 0.16 0.10 0.11 0.14 0.14 0.11 0.11 0.10 0.09 0.07 0.07 0.07 0.08 0.07 0.11 0.18 0.21 0.16 0.08
0.14 0.15 0.17 0.22 0.24 0.24 0.24 0.25 0.23 0.19 0.15 0.14 0.13 0.11 0.11 0.11 0.10 0.10 0.10 0.11 0.17 0.20 0.18 0.16 0.15 0.11 0.07 0.07 0.10 0.10 0.07 0.05 0.07 0.07 0.06 0.05 0.05 0.05 0.05 0.07 0.11 0.15 0.15 0.10
0.18 0.18 0.15 0.16 0.18 0.20 0.18 0.14 0.12 0.11 0.09 0.08 0.08 0.07 0.06 0.07 0.08 0.09 0.10 0.11 0.15 0.18 0.16 0.15 0.11 0.06 0.03 0.03 0.06 0.06 0.04 0.02 0.01 0.03 0.04 0.03 0.04 0.04 0.04 0.04 0.08 0.10 0.08 0.06
0.17 0.14 0.12 0.11 0.11 0.10 0.08 0.06 0.05 0.07 0.06 0.03 0.03 0.04 0.05 0.07 0.07 0.07 0.07 0.07 0.10 0.13 0.12 0.07 0.05 0.03 0.02 0.02 0.03 0.03 0.02 0.02 0.01 0.02 0.02 0.02 0.03 0.04 0.04 0.04 0.06 0.07 0.06 0.06
0.09 0.06 0.06 0.05 0.05 0.04 0.03 0.04 0.04 0.03 0.02 0.01 0.02 0.04 0.05 0.05 0.04 0.04 0.05 0.06 0.09 0.11 0.09 0.04 0.02 0.02 0.02 0.01 0.01 0.01 0.01 0.01 0.01 0.01 0.01 0.01 0.01 0.02 0.02 0.03 0.03 0.03 0.05 0.06
0.03 0.02 0.03 0.03 0.02 0.02 0.02 0.03 0.02 0.02 0.01 0.02 0.03 0.03 0.03 0.02 0.02 0.02 0.04 0.07 0.08 0.07 0.04 0.02 0.01 0.02 0.02 0.01 0.00 0.00 0.00 0.00 0.00 0.00 0.00 0.00 0.00 0.01 0.01 0.02 0.01 0.02 0.03 0.04
0.02 0.02 0.02 0.02 0.02 0.02 0.02 0.01 0.02 0.02 0.02 0.02 0.02 0.03 0.02 0.02 0.01 0.02 0.03 0.06 0.06 0.04 0.02 0.01 0.02 0.01 0.01 0.00 0.00 0.00 0.00 0.00 0.00 0.00 0.00 0.00 0.00 0.00 0.01 0.01 0.01 0.01 0.02 0.03
0.03 0.02 0.02 0.02 0.01 0.01 0.02 0.02 0.02 0.02 0.01 0.01 0.01 0.02 0.01 0.01 0.01 0.02 0.03 0.05 0.04 0.02 0.01 0.00 0.01 0.01 0.00 0.00 0.00 0.00 0.00 0.00 0.00 0.00 0.00 0.00 0.00 0.00 0.01 0.01 0.01 0.01 0.02 0.03
0.06 0.03 0.02 0.02 0.01 0.02 0.03 0.03 0.02 0.01 0.01 0.01 0.01 0.01 0.01 0.01 0.01 0.01 0.02 0.02 0.01 0.00 0.01 0.01 0.00 0.00 0.00 0.00 0.00 0.00 0.00 0.00 0.00 0.00 0.00 0.00 0.00 0.00 0.00 0.00 0.00 0.01 0.01 0.01
0.10 0.06 0.03 0.03 0.03 0.03 0.03 0.02 0.01 0.01 0.01 0.01 0.01 0.01 0.01 0.01 0.01 0.00 0.00 0.00 0.00 0.00 0.00 0.00 0.00 0.00 0.00 0.00 0.00 0.00 0.00 0.00 0.00 0.00 0.00 0.00 0.00 0.00 0.00 0.00 0.00 0.00 0.00 0.00
0.08 0.07 0.04 0.04 0.05 0.04 0.04 0.02 0.02 0.01 0.01 0.01 0.01 0.00 0.00 0.00 0.00 0.00 0.00 0.00 0.00 0.00 0.00 0.00 0.00 0.00 0.00 0.00 0.00 0.00 0.00 0.00 0.00 0.00 0.00 0.00 0.00 0.00 0.00 0.00 0.00 0.00 0.00 0.00
0.13 0.13 0.09 0.06 0.05 0.04 0.03 0.02 0.02 0.03 0.02 0.02 0.01 0.01 0.01 0.00 0.00 0.00 0.00 0.00 0.00 0.00 0.00 0.00 0.00 0.00 0.00 0.00 0.00 0.00 0.00 0.00 0.00 0.00 0.00 0.00 0.00 0.00 0.00 0.00 0.00 0.00 0.00 0.00
0.21 0.18 0.13 0.11 0.08 0.04 0.02 0.02 0.02 0.03 0.02 0.02 0.02 0.01 0.01 0.01 0.00 0.00 0.00 0.00 0.00 0.00 0.00 0.00 0.00 0.00 0.00 0.00 0.00 0.00 0.01 0.01 0.01 0.00 0.00 0.00 0.00 0.00 0.00 0.00 0.01 0.00 0.00 0.00